| time (UTC) | temp F | wind direction | speed knots | gust knots | rain 1hr in | rain 24hr in | rain mn in | humidity % | barometer mb |
| 20260504050521 | 57 | 226 | 0.0 | 2.6 | 0.00 | 0.52 | 0.17 | 95 | 1011.4 |
| 20260504050020 | 57 | 244 | 0.9 | 2.6 | 0.00 | 0.52 | 0.17 | 95 | 1011.3 |
| 20260504045521 | 57 | 162 | 0.0 | 1.7 | 0.00 | 0.52 | 0.17 | 95 | 1011.2 |
| 20260504045020 | 57 | 260 | 0.0 | 1.7 | 0.00 | 0.52 | 0.17 | 95 | 1011.1 |
| 20260504044520 | 57 | 249 | 0.9 | 3.5 | 0.00 | 0.52 | 0.17 | 95 | 1011.0 |
| 20260504044020 | 57 | 158 | 0.9 | 1.7 | 0.00 | 0.52 | 0.17 | 95 | 1011.1 |
| 20260504043521 | 57 | 164 | 0.9 | 3.5 | 0.00 | 0.52 | 0.17 | 95 | 1011.0 |
| 20260504043021 | 57 | 184 | 0.0 | 3.5 | 0.00 | 0.52 | 0.17 | 95 | 1011.0 |
| 20260504042520 | 57 | 274 | 0.0 | 1.7 | 0.00 | 0.52 | 0.17 | 95 | 1010.9 |
| 20260504042020 | 57 | 274 | 0.9 | 1.7 | 0.00 | 0.52 | 0.17 | 96 | 1011.0 |
| 20260504041532 | 57 | 229 | 0.0 | 2.6 | 0.00 | 0.52 | 0.17 | 95 | 1011.0 |
| 20260504041032 | 57 | 251 | 0.0 | 2.6 | 0.00 | 0.52 | 0.17 | 95 | 1011.1 |
| 20260504040521 | 57 | 184 | 0.0 | 1.7 | 0.00 | 0.52 | 0.17 | 95 | 1011.2 |
| 20260504040021 | 57 | 207 | 0.0 | 1.7 | 0.00 | 0.52 | 0.17 | 95 | 1011.0 |
| 20260504035521 | 57 | 238 | 0.0 | 1.7 | 0.00 | 0.52 | 0.17 | 95 | 1011.1 |
| 20260504035021 | 57 | 162 | 0.0 | 1.7 | 0.00 | 0.52 | 0.17 | 95 | 1011.2 |
| 20260504034520 | 57 | 202 | 0.0 | 1.7 | 0.00 | 0.52 | 0.17 | 95 | 1011.1 |
| 20260504034021 | 57 | 217 | 0.0 | 3.5 | 0.00 | 0.52 | 0.17 | 95 | 1011.2 |
| 20260504033521 | 57 | 205 | 0.9 | 2.6 | 0.00 | 0.52 | 0.17 | 95 | 1011.3 |
| 20260504033032 | 57 | 289 | 0.9 | 3.5 | 0.00 | 0.52 | 0.17 | 95 | 1011.4 |
| 20260504032521 | 57 | 257 | 0.9 | 5.2 | 0.00 | 0.52 | 0.17 | 95 | 1011.4 |
| 20260504032021 | 57 | 247 | 1.7 | 5.2 | 0.00 | 0.52 | 0.17 | 95 | 1011.5 |
| 20260504031532 | 57 | 189 | 0.9 | 2.6 | 0.00 | 0.52 | 0.17 | 95 | 1011.4 |
| 20260504031032 | 57 | 288 | 0.9 | 2.6 | 0.00 | 0.52 | 0.17 | 96 | 1011.5 |
| 20260504030522 | 57 | 253 | 0.9 | 2.6 | 0.00 | 0.52 | 0.17 | 96 | 1011.5 |
| 20260504030032 | 57 | 250 | 0.9 | 3.5 | 0.00 | 0.52 | 0.17 | 96 | 1011.5 |
| 20260504025521 | 57 | 260 | 1.7 | 3.5 | 0.00 | 0.52 | 0.17 | 96 | 1011.5 |
| 20260504025021 | 56 | 154 | 0.0 | 0.0 | 0.00 | 0.52 | 0.17 | 95 | 1011.5 |
| 20260504024021 | 56 | 142 | 0.0 | 0.0 | 0.00 | 0.52 | 0.17 | 95 | 1011.5 |
| 20260504023521 | 57 | 142 | 0.0 | 0.0 | 0.00 | 0.52 | 0.17 | 95 | 1011.5 |
| 20260504023021 | 57 | 142 | 0.0 | 0.0 | 0.00 | 0.52 | 0.17 | 95 | 1011.7 |
| 20260504022521 | 57 | 142 | 0.0 | 0.0 | 0.00 | 0.52 | 0.17 | 95 | 1011.7 |
| 20260504022032 | 57 | 142 | 0.0 | 0.0 | 0.00 | 0.52 | 0.17 | 95 | 1011.8 |
| 20260504021521 | 57 | 142 | 0.0 | 0.0 | 0.00 | 0.52 | 0.17 | 95 | 1011.7 |
| 20260504021032 | 57 | 142 | 0.0 | 0.0 | 0.00 | 0.52 | 0.17 | 95 | 1011.7 |
| 20260504020521 | 57 | 142 | 0.0 | 0.0 | 0.01 | 0.52 | 0.17 | 95 | 1011.7 |
| 20260504020023 | 57 | 172 | 0.0 | 0.0 | 0.02 | 0.52 | 0.17 | 95 | 1011.7 |
| 20260504015532 | 57 | 172 | 0.0 | 1.7 | 0.04 | 0.52 | 0.17 | 95 | 1011.9 |
| 20260504015020 | 57 | 172 | 0.9 | 1.7 | 0.06 | 0.52 | 0.17 | 95 | 1011.9 |
| 20260504014521 | 57 | 153 | 0.0 | 1.7 | 0.11 | 0.52 | 0.17 | 95 | 1011.9 |
| 20260504014022 | 57 | 168 | 0.0 | 1.7 | 0.13 | 0.52 | 0.17 | 95 | 1011.9 |
| 20260504013521 | 57 | 236 | 0.0 | 2.6 | 0.13 | 0.52 | 0.17 | 95 | 1011.8 |
| 20260504013021 | 57 | 281 | 1.7 | 2.6 | 0.13 | 0.52 | 0.17 | 95 | 1011.5 |
| 20260504012522 | 57 | 91 | 0.0 | 4.3 | 0.13 | 0.52 | 0.17 | 95 | 1011.3 |
| 20260504012021 | 57 | 108 | 0.9 | 4.3 | 0.13 | 0.52 | 0.17 | 95 | 1011.1 |
| 20260504011521 | 57 | 120 | 0.9 | 1.7 | 0.13 | 0.52 | 0.17 | 95 | 1011.1 |
| 20260504011021 | 57 | 86 | 0.9 | 1.7 | 0.13 | 0.52 | 0.17 | 95 | 1011.2 |
| 20260504010521 | 57 | 104 | 0.9 | 1.7 | 0.13 | 0.51 | 0.17 | 95 | 1011.4 |
| 20260504010021 | 57 | 91 | 0.0 | 0.9 | 0.11 | 0.50 | 0.15 | 95 | 1011.6 |
| 20260504005532 | 57 | 89 | 0.0 | 0.9 | 0.09 | 0.47 | 0.13 | 95 | 1011.7 |
| 20260504005021 | 57 | 89 | 0.0 | 2.6 | 0.07 | 0.46 | 0.11 | 95 | 1011.5 |
| 20260504004533 | 57 | 259 | 0.9 | 2.6 | 0.02 | 0.40 | 0.06 | 95 | 1011.6 |
| 20260504004022 | 57 | 103 | 0.0 | 1.7 | 0.00 | 0.39 | 0.04 | 95 | 1011.2 |
| 20260504003521 | 57 | 103 | 0.0 | 1.7 | 0.00 | 0.39 | 0.04 | 95 | 1011.1 |
| 20260504003042 | 57 | 103 | 0.0 | 0.0 | 0.02 | 0.39 | 0.04 | 95 | 1010.9 |
| 20260504002520 | 57 | 84 | 0.0 | 0.0 | 0.04 | 0.39 | 0.04 | 95 | 1011.0 |
| 20260504002020 | 57 | 84 | 0.0 | 0.0 | 0.04 | 0.39 | 0.04 | 95 | 1011.1 |
| 20260504001521 | 57 | 84 | 0.0 | 0.0 | 0.04 | 0.39 | 0.04 | 95 | 1011.2 |
| 20260504001020 | 57 | 84 | 0.0 | 0.0 | 0.04 | 0.39 | 0.04 | 95 | 1011.2 |
| 20260504000520 | 57 | 84 | 0.0 | 0.0 | 0.04 | 0.39 | 0.04 | 95 | 1011.1 |
| 20260504000020 | 57 | 84 | 0.0 | 0.0 | 0.04 | 0.39 | 0.04 | 95 | 1011.2 |
| 20260503235520 | 57 | 85 | 0.0 | 0.0 | 0.04 | 0.39 | 0.04 | 95 | 1011.2 |
| 20260503235021 | 57 | 85 | 0.0 | 0.0 | 0.04 | 0.39 | 0.04 | 95 | 1011.2 |
| 20260503234522 | 57 | 85 | 0.0 | 0.0 | 0.04 | 0.39 | 0.04 | 95 | 1011.3 |
| 20260503234033 | 57 | 85 | 0.0 | 0.0 | 0.04 | 0.39 | 0.04 | 95 | 1011.4 |
| 20260503233521 | 57 | 79 | 0.0 | 0.0 | 0.04 | 0.39 | 0.04 | 95 | 1011.5 |
| 20260503233020 | 57 | 79 | 0.0 | 0.0 | 0.01 | 0.35 | 0.01 | 95 | 1011.9 |
| 20260503232520 | 57 | 79 | 0.0 | 0.0 | 0.00 | 0.35 | 0.00 | 95 | 1012.0 |
| 20260503232031 | 57 | 79 | 0.0 | 0.0 | 0.00 | 0.35 | 0.00 | 94 | 1011.9 |
| 20260503231521 | 57 | 79 | 0.0 | 0.0 | 0.00 | 0.35 | 0.00 | 95 | 1011.9 |
| 20260503231021 | 58 | 283 | 0.0 | 0.9 | 0.00 | 0.35 | 0.00 | 95 | 1011.9 |
| 20260503230520 | 58 | 283 | 0.0 | 0.9 | 0.00 | 0.35 | 0.00 | 95 | 1012.0 |
| 20260503230020 | 58 | 283 | 0.0 | 0.9 | 0.00 | 0.35 | 0.00 | 94 | 1012.0 |
| 20260503225520 | 58 | 283 | 0.0 | 0.9 | 0.00 | 0.35 | 0.00 | 94 | 1011.9 |
| 20260503225031 | 58 | 125 | 0.0 | 1.7 | 0.00 | 0.35 | 0.00 | 94 | 1011.9 |
| 20260503224521 | 58 | 125 | 0.0 | 1.7 | 0.01 | 0.35 | 0.00 | 94 | 1011.9 |
| 20260503223521 | 58 | 121 | 0.0 | 0.0 | 0.05 | 0.35 | 0.00 | 94 | 1012.0 |
| 20260503223021 | 58 | 121 | 0.0 | 0.0 | 0.09 | 0.35 | 0.00 | 94 | 1012.2 |
| 20260503222531 | 58 | 121 | 0.0 | 0.0 | 0.09 | 0.35 | 0.00 | 94 | 1012.2 |
| 20260503222020 | 58 | 239 | 0.0 | 0.0 | 0.09 | 0.35 | 0.00 | 94 | 1012.1 |
| 20260503221521 | 58 | 239 | 0.0 | 0.0 | 0.10 | 0.35 | 0.00 | 94 | 1012.3 |
| 20260503221021 | 58 | 120 | 0.0 | 0.0 | 0.12 | 0.35 | 0.00 | 94 | 1012.1 |
| 20260503220521 | 58 | 120 | 0.0 | 0.9 | 0.12 | 0.35 | 0.00 | 94 | 1012.2 |
| 20260503220020 | 58 | 120 | 0.0 | 0.9 | 0.13 | 0.35 | 0.00 | 94 | 1012.3 |
| 20260503215532 | 59 | 124 | 0.0 | 0.0 | 0.17 | 0.35 | 0.35 | 94 | 1012.3 |
| 20260503215032 | 59 | 114 | 0.0 | 0.0 | 0.20 | 0.35 | 0.35 | 94 | 1012.3 |
| 20260503214521 | 59 | 114 | 0.0 | 0.0 | 0.20 | 0.34 | 0.34 | 94 | 1012.3 |
| 20260503214020 | 59 | 115 | 0.0 | 0.0 | 0.17 | 0.31 | 0.31 | 94 | 1012.5 |
| 20260503213521 | 59 | 114 | 0.0 | 0.0 | 0.18 | 0.30 | 0.30 | 94 | 1012.6 |
| 20260503213032 | 59 | 259 | 0.0 | 0.0 | 0.17 | 0.26 | 0.26 | 94 | 1012.7 |
| 20260503212521 | 59 | 127 | 0.0 | 0.0 | 0.18 | 0.25 | 0.25 | 94 | 1012.7 |
| 20260503212021 | 59 | 127 | 0.0 | 0.0 | 0.19 | 0.24 | 0.24 | 94 | 1012.7 |
| 20260503211522 | 59 | 126 | 0.0 | 0.0 | 0.20 | 0.24 | 0.24 | 94 | 1012.7 |
| 20260503211021 | 59 | 126 | 0.0 | 0.0 | 0.20 | 0.23 | 0.23 | 94 | 1012.6 |
| 20260503210532 | 59 | 120 | 0.0 | 0.0 | 0.20 | 0.23 | 0.23 | 94 | 1012.6 |
| 20260503210033 | 59 | 120 | 0.0 | 0.9 | 0.20 | 0.20 | 0.20 | 94 | 1012.7 |
| 20260503205521 | 59 | 120 | 0.0 | 0.9 | 0.17 | 0.18 | 0.17 | 93 | 1012.7 |
| 20260503205032 | 59 | 79 | 0.0 | 0.9 | 0.14 | 0.16 | 0.15 | 93 | 1012.7 |
| 20260503204021 | 60 | 87 | 0.9 | 3.5 | 0.13 | 0.14 | 0.13 | 93 | 1012.7 |
| 20260503203521 | 60 | 113 | 0.0 | 1.7 | 0.10 | 0.12 | 0.11 | 93 | 1012.7 |
| 20260503203023 | 60 | 152 | 0.0 | 0.9 | 0.08 | 0.09 | 0.09 | 93 | 1012.8 |
| 20260503202521 | 60 | 274 | 0.0 | 0.9 | 0.06 | 0.07 | 0.06 | 93 | 1012.4 |
| 20260503202021 | 60 | 274 | 0.0 | 2.6 | 0.05 | 0.06 | 0.06 | 93 | 1012.4 |
| 20260503201520 | 60 | 286 | 1.7 | 2.6 | 0.02 | 0.03 | 0.02 | 92 | 1012.4 |
| 20260503201021 | 60 | 276 | 0.9 | 1.7 | 0.02 | 0.03 | 0.02 | 92 | 1012.2 |
| 20260503200521 | 60 | 112 | 0.0 | 0.0 | 0.02 | 0.03 | 0.02 | 92 | 1011.9 |
| 20260503200021 | 60 | 112 | 0.0 | 0.0 | 0.00 | 0.02 | 0.01 | 92 | 1011.9 |
| 20260503195522 | 60 | 113 | 0.0 | 0.0 | 0.00 | 0.02 | 0.01 | 92 | 1011.7 |
| 20260503195021 | 60 | 113 | 0.0 | 0.0 | 0.00 | 0.02 | 0.01 | 91 | 1011.6 |
| 20260503194522 | 60 | 112 | 0.0 | 0.0 | 0.00 | 0.02 | 0.01 | 91 | 1011.6 |
| 20260503194022 | 60 | 112 | 0.0 | 0.0 | 0.00 | 0.02 | 0.01 | 91 | 1011.6 |
| 20260503193521 | 60 | 108 | 0.0 | 0.0 | 0.00 | 0.02 | 0.01 | 91 | 1011.5 |
| 20260503193021 | 60 | 108 | 0.0 | 0.0 | 0.00 | 0.02 | 0.01 | 91 | 1011.6 |
| 20260503192522 | 60 | 108 | 0.0 | 0.0 | 0.00 | 0.02 | 0.01 | 91 | 1011.6 |
| 20260503192021 | 60 | 108 | 0.0 | 0.0 | 0.00 | 0.02 | 0.01 | 91 | 1011.5 |
| 20260503191522 | 60 | 108 | 0.0 | 0.0 | 0.00 | 0.02 | 0.01 | 91 | 1011.4 |
| 20260503191021 | 60 | 108 | 0.0 | 0.0 | 0.00 | 0.02 | 0.01 | 90 | 1011.4 |
| 20260503190521 | 60 | 108 | 0.0 | 0.0 | 0.00 | 0.02 | 0.01 | 90 | 1011.4 |
| 20260503190025 | 60 | 110 | 0.0 | 0.0 | 0.00 | 0.02 | 0.01 | 90 | 1011.3 |
| 20260503185521 | 60 | 110 | 0.0 | 0.0 | 0.00 | 0.03 | 0.01 | 90 | 1011.3 |
| 20260503185020 | 61 | 110 | 0.0 | 0.0 | 0.00 | 0.03 | 0.01 | 90 | 1011.2 |
| 20260503184521 | 61 | 110 | 0.0 | 0.0 | 0.00 | 0.03 | 0.01 | 90 | 1011.2 |
| 20260503184023 | 61 | 110 | 0.0 | 0.0 | 0.00 | 0.03 | 0.01 | 89 | 1011.1 |
| 20260503183522 | 61 | 110 | 0.0 | 0.0 | 0.00 | 0.03 | 0.01 | 89 | 1011.1 |
| 20260503183022 | 61 | 110 | 0.0 | 0.0 | 0.00 | 0.03 | 0.01 | 89 | 1011.0 |
| 20260503182532 | 61 | 110 | 0.0 | 0.0 | 0.00 | 0.03 | 0.01 | 89 | 1011.1 |
| 20260503182021 | 61 | 110 | 0.0 | 0.0 | 0.00 | 0.03 | 0.01 | 89 | 1011.0 |
| 20260503181521 | 61 | 110 | 0.0 | 0.0 | 0.00 | 0.03 | 0.01 | 89 | 1010.9 |
| 20260503181022 | 61 | 110 | 0.0 | 0.0 | 0.00 | 0.03 | 0.01 | 89 | 1011.0 |
| 20260503180522 | 61 | 93 | 0.0 | 0.0 | 0.00 | 0.03 | 0.01 | 89 | 1010.9 |
| 20260503180021 | 61 | 91 | 0.0 | 0.0 | 0.00 | 0.03 | 0.01 | 89 | 1010.9 |
| 20260503175532 | 62 | 121 | 0.0 | 0.0 | 0.00 | 0.05 | 0.01 | 89 | 1010.9 |
| 20260503175021 | 62 | 113 | 0.0 | 0.9 | 0.00 | 0.05 | 0.01 | 90 | 1011.0 |
| 20260503174521 | 61 | 113 | 0.0 | 0.9 | 0.00 | 0.05 | 0.01 | 89 | 1010.9 |
| 20260503174023 | 62 | 111 | 0.0 | 0.9 | 0.00 | 0.05 | 0.01 | 90 | 1010.9 |
| 20260503173533 | 62 | 113 | 0.0 | 0.0 | 0.00 | 0.05 | 0.01 | 90 | 1011.0 |
| 20260503173032 | 62 | 124 | 0.0 | 0.0 | 0.00 | 0.05 | 0.01 | 89 | 1011.0 |
| 20260503172521 | 62 | 124 | 0.0 | 0.0 | 0.00 | 0.05 | 0.01 | 89 | 1011.1 |
| 20260503172022 | 62 | 155 | 0.0 | 0.0 | 0.00 | 0.05 | 0.01 | 89 | 1011.0 |
| 20260503171522 | 62 | 155 | 0.0 | 0.0 | 0.00 | 0.05 | 0.01 | 89 | 1010.9 |
| 20260503171022 | 62 | 165 | 0.0 | 0.9 | 0.00 | 0.05 | 0.01 | 89 | 1010.9 |
| 20260503170522 | 62 | 125 | 0.0 | 0.9 | 0.00 | 0.05 | 0.01 | 88 | 1010.9 |
| 20260503150526 | 66 | 19 | 0.0 | 3.5 | 0.01 | 0.09 | 0.01 | 83 | 1011.4 |
| 20260503131015 | 69 | 124 | 0.0 | 3.5 | 0.00 | 0.20 | 0.00 | 76 | 1012.4 |
| 20260503130516 | 70 | 118 | 0.9 | 2.6 | 0.00 | 0.20 | 0.00 | 74 | 1012.3 |
| 20260503110516 | 71 | 119 | 1.7 | 3.5 | 0.00 | 0.21 | 0.00 | 74 | 1013.3 |
| 20260503081515 | 63 | 97 | 0.0 | 0.9 | 0.00 | 0.22 | 0.00 | 95 | 1014.0 |
| 20260503081015 | 63 | 86 | 0.0 | 0.9 | 0.00 | 0.22 | 0.00 | 95 | 1014.0 |
| 20260503080515 | 62 | 82 | 0.0 | 0.9 | 0.00 | 0.22 | 0.00 | 95 | 1014.0 |
| 20260503072515 | 59 | 77 | 0.0 | 0.0 | 0.00 | 0.22 | 0.00 | 96 | 1013.9 |
| 20260503072015 | 58 | 77 | 0.0 | 0.0 | 0.00 | 0.22 | 0.00 | 96 | 1013.9 |
| 20260503071527 | 58 | 77 | 0.0 | 0.0 | 0.00 | 0.22 | 0.00 | 96 | 1013.9 |
| 20260503071016 | 57 | 77 | 0.0 | 0.0 | 0.00 | 0.22 | 0.00 | 96 | 1013.9 |
| 20260503070515 | 57 | 77 | 0.0 | 0.0 | 0.00 | 0.22 | 0.00 | 96 | 1013.8 |
| 20260503055015 | 50 | 77 | 0.0 | 0.0 | 0.00 | 0.22 | 0.00 | 96 | 1013.4 |
| 20260503054516 | 50 | 77 | 0.0 | 0.0 | 0.00 | 0.22 | 0.00 | 96 | 1013.4 |
| 20260503054016 | 50 | 77 | 0.0 | 0.0 | 0.00 | 0.22 | 0.00 | 96 | 1013.3 |
| 20260503053516 | 50 | 77 | 0.0 | 0.0 | 0.00 | 0.22 | 0.00 | 96 | 1013.3 |
| 20260503053017 | 49 | 77 | 0.0 | 0.0 | 0.00 | 0.22 | 0.00 | 96 | 1013.3 |
| 20260503052516 | 49 | 77 | 0.0 | 0.0 | 0.00 | 0.22 | 0.00 | 96 | 1013.3 |